Time,TemperatureF,DewpointF,PressureIn,WindDirection,WindDirectionDegrees,WindSpeedMPH,WindSpeedGustMPH,Humidity,HourlyPrecipIn,Conditions,Clouds,dailyrainin,SoftwareType,DateUTC
2013-02-11 00:01:00,41.3,40.0,30.34,ESE,108,0.0,0.0,93,0.00,,,0.00,weatherlink.com 1.10,2013-02-11 08:01:00,
2013-02-11 00:16:00,41.2,39.0,30.34,ESE,108,0.0,0.0,93,0.00,,,0.00,weatherlink.com 1.10,2013-02-11 08:16:00,
2013-02-11 00:31:00,41.3,40.0,30.34,ESE,108,0.0,0.0,93,0.00,,,0.00,weatherlink.com 1.10,2013-02-11 08:31:00,
2013-02-11 00:46:00,41.7,40.0,30.34,SE,138,0.0,2.0,94,0.00,,,0.00,weatherlink.com 1.10,2013-02-11 08:46:00,
2013-02-11 01:01:00,41.7,40.0,30.34,SE,138,0.0,0.0,94,0.00,,,0.00,weatherlink.com 1.10,2013-02-11 09:01:00,
2013-02-11 01:16:00,41.5,40.0,30.34,SE,138,0.0,0.0,94,0.00,,,0.00,weatherlink.com 1.10,2013-02-11 09:16:00,
2013-02-11 01:31:00,41.2,40.0,30.34,SE,138,0.0,0.0,94,0.00,,,0.00,weatherlink.com 1.10,2013-02-11 09:31:00,
2013-02-11 01:46:00,41.2,40.0,30.34,SE,138,0.0,0.0,95,0.00,,,0.00,weatherlink.com 1.10,2013-02-11 09:46:00,
2013-02-11 02:01:00,41.3,40.0,30.34,SE,138,0.0,0.0,94,0.00,,,0.00,weatherlink.com 1.10,2013-02-11 10:01:00,
2013-02-11 02:16:00,41.4,40.0,30.34,SE,138,0.0,0.0,95,0.00,,,0.00,weatherlink.com 1.10,2013-02-11 10:16:00,
2013-02-11 02:31:00,41.4,40.0,30.34,SE,138,0.0,0.0,95,0.00,,,0.00,weatherlink.com 1.10,2013-02-11 10:31:00,
2013-02-11 02:46:00,41.4,40.0,30.33,SE,138,0.0,0.0,95,0.00,,,0.00,weatherlink.com 1.10,2013-02-11 10:46:00,
2013-02-11 03:01:00,41.4,40.0,30.34,SE,138,0.0,0.0,95,0.00,,,0.00,weatherlink.com 1.10,2013-02-11 11:01:00,
2013-02-11 03:17:00,41.3,40.0,30.33,SSW,195,0.0,0.0,96,0.00,,,0.00,weatherlink.com 1.10,2013-02-11 11:17:00,
2013-02-11 03:32:00,41.4,40.0,30.33,SSW,196,0.0,0.0,96,0.00,,,0.00,weatherlink.com 1.10,2013-02-11 11:32:00,
2013-02-11 03:47:00,41.3,40.0,30.33,SSW,195,0.0,0.0,96,0.00,,,0.00,weatherlink.com 1.10,2013-02-11 11:47:00,
2013-02-11 04:02:00,41.2,40.0,30.32,SSW,196,0.0,0.0,96,0.00,,,0.00,weatherlink.com 1.10,2013-02-11 12:02:00,
2013-02-11 04:17:00,41.0,40.0,30.32,SSW,196,0.0,0.0,96,0.00,,,0.00,weatherlink.com 1.10,2013-02-11 12:17:00,
2013-02-11 04:32:00,41.0,40.0,30.32,SSW,196,0.0,0.0,96,0.00,,,0.00,weatherlink.com 1.10,2013-02-11 12:32:00,
2013-02-11 04:47:00,41.0,40.0,30.32,SSW,196,0.0,0.0,96,0.00,,,0.00,weatherlink.com 1.10,2013-02-11 12:47:00,
2013-02-11 05:02:00,40.9,40.0,30.32,SSW,196,0.0,0.0,96,0.00,,,0.00,weatherlink.com 1.10,2013-02-11 13:02:00,
2013-02-11 05:17:00,40.5,40.0,30.32,SSW,196,0.0,0.0,96,0.00,,,0.00,weatherlink.com 1.10,2013-02-11 13:17:00,
2013-02-11 05:32:00,40.0,39.0,30.32,SSW,196,0.0,0.0,96,0.00,,,0.00,weatherlink.com 1.10,2013-02-11 13:32:00,
2013-02-11 05:47:00,39.8,39.0,30.32,SSW,196,0.0,0.0,96,0.00,,,0.00,weatherlink.com 1.10,2013-02-11 13:47:00,
2013-02-11 06:02:00,39.8,39.0,30.32,SSW,196,0.0,0.0,96,0.00,,,0.00,weatherlink.com 1.10,2013-02-11 14:02:00,
2013-02-11 06:17:00,39.7,39.0,30.32,SSW,196,0.0,0.0,96,0.00,,,0.00,weatherlink.com 1.10,2013-02-11 14:17:00,
2013-02-11 06:32:00,39.6,39.0,30.32,SSW,196,0.0,0.0,96,0.00,,,0.00,weatherlink.com 1.10,2013-02-11 14:32:00,
2013-02-11 06:47:00,39.8,39.0,30.32,SSW,196,0.0,0.0,97,0.00,,,0.00,weatherlink.com 1.10,2013-02-11 14:47:00,
2013-02-11 07:02:00,39.9,39.0,30.32,SSW,195,0.0,0.0,97,0.00,,,0.00,weatherlink.com 1.10,2013-02-11 15:02:00,
2013-02-11 07:17:00,39.9,39.0,30.32,SSW,196,0.0,0.0,97,0.00,,,0.00,weatherlink.com 1.10,2013-02-11 15:17:00,
2013-02-11 07:32:00,40.0,39.0,30.32,SSW,196,0.0,0.0,97,0.00,,,0.00,weatherlink.com 1.10,2013-02-11 15:32:00,
2013-02-11 07:47:00,40.2,39.0,30.32,SSW,196,0.0,0.0,97,0.00,,,0.00,weatherlink.com 1.10,2013-02-11 15:47:00,
2013-02-11 08:02:00,40.4,40.0,30.32,SSW,196,0.0,0.0,97,0.00,,,0.00,weatherlink.com 1.10,2013-02-11 16:02:00,
2013-02-11 08:17:00,40.7,40.0,30.32,SSW,195,0.0,0.0,97,0.00,,,0.00,weatherlink.com 1.10,2013-02-11 16:17:00,
2013-02-11 08:32:00,41.0,40.0,30.32,SSW,196,0.0,0.0,96,0.00,,,0.00,weatherlink.com 1.10,2013-02-11 16:32:00,
2013-02-11 08:47:00,41.3,40.0,30.33,South,190,0.0,0.0,96,0.00,,,0.00,weatherlink.com 1.10,2013-02-11 16:47:00,
2013-02-11 09:02:00,41.6,41.0,30.33,South,190,0.0,0.0,96,0.00,,,0.00,weatherlink.com 1.10,2013-02-11 17:02:00,
2013-02-11 09:17:00,41.8,41.0,30.33,South,190,0.0,0.0,96,0.00,,,0.00,weatherlink.com 1.10,2013-02-11 17:17:00,
2013-02-11 09:32:00,42.0,41.0,30.33,South,190,0.0,0.0,96,0.00,,,0.00,weatherlink.com 1.10,2013-02-11 17:32:00,
2013-02-11 09:47:00,42.1,41.0,30.34,SSW,195,0.0,3.0,96,0.00,,,0.00,weatherlink.com 1.10,2013-02-11 17:47:00,
2013-02-11 10:02:00,42.3,41.0,30.34,SSW,195,0.0,1.0,96,0.00,,,0.00,weatherlink.com 1.10,2013-02-11 18:02:00,
2013-02-11 10:17:00,42.5,42.0,30.33,SSW,195,0.0,2.0,96,0.00,,,0.00,weatherlink.com 1.10,2013-02-11 18:17:00,
2013-02-11 10:32:00,42.6,42.0,30.33,SSW,194,2.0,3.0,96,0.00,,,0.00,weatherlink.com 1.10,2013-02-11 18:32:00,
2013-02-11 10:47:00,42.5,42.0,30.34,ESE,110,2.0,6.0,96,0.00,,,0.00,weatherlink.com 1.10,2013-02-11 18:47:00,
2013-02-11 11:02:00,42.4,41.0,30.34,East,92,1.0,6.0,96,0.00,,,0.00,weatherlink.com 1.10,2013-02-11 19:02:00,
2013-02-11 11:17:00,42.5,42.0,30.34,ESE,113,2.0,7.0,96,0.00,,,0.00,weatherlink.com 1.10,2013-02-11 19:17:00,
2013-02-11 11:32:00,42.5,42.0,30.34,ESE,118,1.0,8.0,96,0.00,,,0.00,weatherlink.com 1.10,2013-02-11 19:32:00,
2013-02-11 11:47:00,42.6,41.0,30.33,ESE,104,5.0,9.0,95,0.00,,,0.00,weatherlink.com 1.10,2013-02-11 19:47:00,
2013-02-11 12:02:00,42.7,41.0,30.33,ESE,118,2.0,8.0,95,0.00,,,0.00,weatherlink.com 1.10,2013-02-11 20:02:00,
2013-02-11 12:17:00,43.0,42.0,30.33,ESE,107,7.0,9.0,95,0.00,,,0.00,weatherlink.com 1.10,2013-02-11 20:17:00,
2013-02-11 12:32:00,43.3,42.0,30.33,ESE,118,4.0,9.0,94,0.00,,,0.00,weatherlink.com 1.10,2013-02-11 20:32:00,
2013-02-11 12:47:00,43.4,42.0,30.33,ESE,102,5.0,11.0,94,0.00,,,0.00,weatherlink.com 1.10,2013-02-11 20:47:00,
2013-02-11 13:02:00,43.4,42.0,30.33,SSW,195,6.0,6.0,94,0.00,,,0.00,weatherlink.com 1.10,2013-02-11 21:02:00,
2013-02-11 13:17:00,43.5,42.0,30.32,East,79,2.0,7.0,94,0.00,,,0.00,weatherlink.com 1.10,2013-02-11 21:17:00,
2013-02-11 13:32:00,44.0,42.0,30.32,ESE,113,0.0,5.0,94,0.00,,,0.00,weatherlink.com 1.10,2013-02-11 21:32:00,
2013-02-11 13:47:00,44.2,42.0,30.32,East,100,7.0,8.0,93,0.00,,,0.00,weatherlink.com 1.10,2013-02-11 21:47:00,
2013-02-11 14:02:00,44.2,42.0,30.32,SE,137,1.0,8.0,92,0.00,,,0.00,weatherlink.com 1.10,2013-02-11 22:02:00,
2013-02-11 14:17:00,44.3,42.0,30.32,South,182,0.0,11.0,92,0.00,,,0.00,weatherlink.com 1.10,2013-02-11 22:17:00,
2013-02-11 14:32:00,44.2,42.0,30.32,East,100,5.0,8.0,93,0.00,,,0.00,weatherlink.com 1.10,2013-02-11 22:32:00,
2013-02-11 14:47:00,44.1,42.0,30.33,ESE,111,4.0,11.0,93,0.00,,,0.00,weatherlink.com 1.10,2013-02-11 22:47:00,
2013-02-11 15:02:00,43.7,42.0,30.32,East,97,5.0,7.0,93,0.00,,,0.00,weatherlink.com 1.10,2013-02-11 23:02:00,
2013-02-11 15:18:00,43.6,42.0,30.33,ESE,123,2.0,9.0,94,0.00,,,0.00,weatherlink.com 1.10,2013-02-11 23:18:00,
2013-02-11 15:33:00,43.6,42.0,30.33,ESE,119,2.0,7.0,95,0.00,,,0.00,weatherlink.com 1.10,2013-02-11 23:33:00,
2013-02-11 15:48:00,43.5,42.0,30.32,East,91,1.0,7.0,95,0.00,,,0.00,weatherlink.com 1.10,2013-02-11 23:48:00,
2013-02-11 16:03:00,43.6,42.0,30.33,East,99,1.0,4.0,95,0.00,,,0.00,weatherlink.com 1.10,2013-02-12 00:03:00,
2013-02-11 16:18:00,43.5,42.0,30.33,East,92,3.0,5.0,95,0.00,,,0.00,weatherlink.com 1.10,2013-02-12 00:18:00,
2013-02-11 16:33:00,43.4,42.0,30.33,East,91,2.0,5.0,96,0.00,,,0.00,weatherlink.com 1.10,2013-02-12 00:33:00,
2013-02-11 16:48:00,43.4,42.0,30.33,East,89,1.0,5.0,96,0.01,,,0.01,weatherlink.com 1.10,2013-02-12 00:48:00,
2013-02-11 17:03:00,43.4,42.0,30.33,ESE,106,0.0,5.0,96,0.01,,,0.01,weatherlink.com 1.10,2013-02-12 01:03:00,
2013-02-11 17:18:00,43.3,42.0,30.33,ESE,120,1.0,5.0,96,0.01,,,0.01,weatherlink.com 1.10,2013-02-12 01:18:00,
2013-02-11 17:33:00,43.3,43.0,30.33,East,96,2.0,5.0,97,0.01,,,0.01,weatherlink.com 1.10,2013-02-12 01:33:00,
2013-02-11 17:48:00,43.3,43.0,30.33,East,91,0.0,3.0,97,0.00,,,0.01,weatherlink.com 1.10,2013-02-12 01:48:00,
2013-02-11 18:03:00,43.3,43.0,30.33,East,99,2.0,5.0,97,0.01,,,0.02,weatherlink.com 1.10,2013-02-12 02:03:00,
2013-02-11 18:18:00,43.2,42.0,30.33,SE,125,1.0,4.0,97,0.01,,,0.02,weatherlink.com 1.10,2013-02-12 02:18:00,
2013-02-11 18:33:00,43.2,42.0,30.33,East,87,1.0,6.0,97,0.01,,,0.02,weatherlink.com 1.10,2013-02-12 02:33:00,
2013-02-11 18:48:00,43.2,42.0,30.32,East,95,6.0,7.0,97,0.01,,,0.02,weatherlink.com 1.10,2013-02-12 02:48:00,
2013-02-11 19:03:00,43.2,42.0,30.33,East,87,0.0,5.0,97,0.00,,,0.02,weatherlink.com 1.10,2013-02-12 03:03:00,
2013-02-11 19:18:00,43.3,43.0,30.33,East,93,2.0,6.0,97,0.00,,,0.02,weatherlink.com 1.10,2013-02-12 03:18:00,
2013-02-11 19:33:00,43.2,42.0,30.33,ESE,110,0.0,2.0,97,0.00,,,0.02,weatherlink.com 1.10,2013-02-12 03:33:00,
2013-02-11 19:48:00,43.3,43.0,30.33,East,101,4.0,5.0,97,0.00,,,0.02,weatherlink.com 1.10,2013-02-12 03:48:00,
2013-02-11 20:03:00,43.3,43.0,30.32,East,97,3.0,5.0,97,0.00,,,0.02,weatherlink.com 1.10,2013-02-12 04:03:00,
2013-02-11 20:18:00,43.2,42.0,30.32,East,90,2.0,5.0,97,0.00,,,0.02,weatherlink.com 1.10,2013-02-12 04:18:00,
2013-02-11 20:33:00,43.1,42.0,30.33,ENE,77,0.0,3.0,97,0.00,,,0.02,weatherlink.com 1.10,2013-02-12 04:33:00,
2013-02-11 20:48:00,42.9,42.0,30.33,ENE,78,0.0,2.0,97,0.00,,,0.02,weatherlink.com 1.10,2013-02-12 04:48:00,
2013-02-11 21:03:00,42.8,42.0,30.32,ENE,78,2.0,3.0,97,0.00,,,0.02,weatherlink.com 1.10,2013-02-12 05:03:00,
2013-02-11 21:18:00,42.7,42.0,30.33,ENE,77,0.0,2.0,98,0.00,,,0.02,weatherlink.com 1.10,2013-02-12 05:18:00,
2013-02-11 21:33:00,42.5,42.0,30.33,ENE,77,0.0,0.0,97,0.00,,,0.02,weatherlink.com 1.10,2013-02-12 05:33:00,
2013-02-11 21:48:00,42.4,42.0,30.34,ENE,77,0.0,0.0,97,0.00,,,0.02,weatherlink.com 1.10,2013-02-12 05:48:00,
2013-02-11 22:03:00,42.6,42.0,30.34,ENE,78,0.0,0.0,97,0.00,,,0.02,weatherlink.com 1.10,2013-02-12 06:03:00,
2013-02-11 22:18:00,42.6,42.0,30.34,ENE,77,0.0,1.0,97,0.00,,,0.02,weatherlink.com 1.10,2013-02-12 06:18:00,
2013-02-11 22:33:00,42.6,42.0,30.33,ENE,77,0.0,1.0,97,0.00,,,0.02,weatherlink.com 1.10,2013-02-12 06:33:00,
2013-02-11 22:48:00,42.4,42.0,30.33,ENE,78,0.0,0.0,98,0.00,,,0.02,weatherlink.com 1.10,2013-02-12 06:48:00,
2013-02-11 23:03:00,42.6,42.0,30.33,ENE,77,0.0,1.0,98,0.00,,,0.02,weatherlink.com 1.10,2013-02-12 07:03:00,
2013-02-11 23:18:00,42.4,42.0,30.33,ENE,78,0.0,1.0,98,0.00,,,0.02,weatherlink.com 1.10,2013-02-12 07:18:00,
2013-02-11 23:33:00,42.5,42.0,30.33,ENE,77,0.0,2.0,98,0.00,,,0.02,weatherlink.com 1.10,2013-02-12 07:33:00,
2013-02-11 23:48:00,42.9,42.0,30.34,SE,145,0.0,2.0,98,0.00,,,0.02,weatherlink.com 1.10,2013-02-12 07:48:00,